GW3707 Weather Reports


time (UTC)temp
C
wind
direction
speed
KPH
gust
KPH
rain 1hr
cm
rain 24hr
cm
rain mn
cm
humidity
%
barometer
mb
20260509185516 31 53 1.6 6.4 0.00 0.00 0.00 48 1011.3
20260509184517 31 292 3.2 9.7 0.00 0.00 0.00 49 1011.4
20260509183516 31 305 3.2 9.7 0.00 0.00 0.00 50 1011.6
20260509182517 32 286 4.8 12.9 0.00 0.00 0.00 49 1011.6
20260509181516 31 281 3.2 12.9 0.00 0.00 0.00 50 1011.7
20260509180517 31 302 1.6 8.0 0.00 0.00 0.00 51 1011.8
20260509175517 31 283 1.6 11.3 0.00 0.00 0.00 51 1012.0
20260509174517 30 293 3.2 11.3 0.00 0.00 0.00 50 1012.1
20260509173537 30 327 4.8 9.7 0.00 0.00 0.00 49 1012.1
20260509172516 30 332 0.0 4.8 0.00 0.00 0.00 49 1012.2
20260509171516 30 285 1.6 8.0 0.00 0.00 0.00 52 1012.3
20260509170516 30 306 4.8 11.3 0.00 0.00 0.00 52 1012.2
20260509165516 30 280 1.6 8.0 0.00 0.00 0.00 54 1012.3
20260509164516 30 300 3.2 11.3 0.00 0.00 0.00 56 1012.4
20260509163516 30 302 1.6 6.4 0.00 0.00 0.00 55 1012.6
20260509162516 29 283 1.6 6.4 0.00 0.00 0.00 59 1012.5
20260509161516 28 297 1.6 6.4 0.00 0.00 0.00 60 1012.5
20260509160516 28 287 1.6 9.7 0.00 0.00 0.00 61 1012.5
20260509155516 27 303 0.0 8.0 0.00 0.00 0.00 64 1012.5
20260509154516 27 305 1.6 12.9 0.00 0.00 0.00 62 1012.6
20260509153516 27 332 3.2 9.7 0.00 0.00 0.00 61 1012.5
20260509152516 27 309 4.8 9.7 0.00 0.00 0.00 61 1012.4
20260509151516 27 305 4.8 12.9 0.00 0.00 0.00 61 1012.4
20260509150517 26 39 4.8 11.3 0.00 0.00 0.00 62 1012.3
20260509145516 26 303 4.8 14.5 0.00 0.00 0.00 63 1012.4
20260509144516 26 296 4.8 11.3 0.00 0.00 0.00 63 1012.4
20260509143516 26 47 4.8 14.5 0.00 0.00 0.00 64 1012.3
20260509142517 26 336 0.0 8.0 0.00 0.00 0.00 69 1012.3
20260509141516 25 5 0.0 11.3 0.00 0.00 0.00 73 1012.2
20260509140516 24 300 4.8 14.5 0.00 0.00 0.00 73 1012.0
20260509135617 23 324 6.4 19.3 0.00 0.00 0.00 76 1011.8
20260509134516 23 5 8.0 22.5 0.00 0.00 0.00 78 1011.7
20260509133536 23 324 6.4 19.3 0.00 0.00 0.00 78 1011.7
20260509132536 22 321 6.4 14.5 0.00 0.00 0.00 79 1011.6
20260509131516 22 42 11.3 22.5 0.00 0.00 0.00 79 1011.3
20260509130516 22 24 8.0 19.3 0.00 0.00 0.00 79 1011.2
20260509125516 21 302 6.4 19.3 0.00 0.00 0.00 80 1011.2
20260509124516 21 305 6.4 14.5 0.00 0.00 0.00 79 1011.4
20260509123516 21 302 4.8 9.7 0.00 0.00 0.00 81 1011.3
20260509122516 21 301 4.8 11.3 0.00 0.00 0.00 83 1011.3
20260509121516 21 302 3.2 6.4 0.00 0.00 0.00 85 1011.2
20260509120516 21 40 4.8 9.7 0.00 0.00 0.00 90 1011.2
20260509115516 21 352 1.6 6.4 0.00 0.00 0.00 92 1011.4
20260509114516 21 301 1.6 4.8 0.00 0.00 0.00 91 1011.4
20260509113516 21 293 3.2 11.3 0.00 0.00 0.00 92 1011.6
20260509112516 21 297 3.2 8.0 0.00 0.00 0.00 93 1011.8
20260509111516 21 297 6.4 12.9 0.00 0.00 0.00 93 1011.7
20260509110516 21 299 8.0 17.7 0.00 0.00 0.00 94 1011.4
20260509105536 21 300 8.0 16.1 0.00 0.00 0.00 95 1011.1
20260509104516 21 302 6.4 17.7 0.00 0.00 0.00 96 1010.7
20260509103516 20 272 1.6 16.1 0.00 0.00 0.00 96 1010.0
20260509102516 20 302 3.2 8.0 0.00 0.00 0.00 97 1010.1
20260509101536 20 140 3.2 12.9 0.00 0.00 0.00 97 1009.4
20260509100516 20 141 4.8 14.5 0.00 0.00 0.00 96 1009.2
20260509095536 20 122 8.0 16.1 0.00 0.00 0.00 97 1008.9
20260509094536 20 139 8.0 17.7 0.00 0.00 0.00 97 1008.8
20260509093516 20 142 6.4 17.7 0.00 0.00 0.00 97 1008.9
20260509092536 20 138 4.8 12.9 0.00 0.00 0.00 97 1009.3
20260509091516 20 139 4.8 12.9 0.00 0.00 0.00 97 1009.7
20260509090516 20 138 1.6 8.0 0.00 0.00 0.00 97 1010.0
20260509085516 20 149 1.6 8.0 0.00 0.00 0.00 96 1010.4
20260509084516 20 140 3.2 9.7 0.00 0.00 0.00 96 1010.4
20260509083516 20 147 3.2 9.7 0.00 0.00 0.00 96 1010.7
20260509082515 20 146 3.2 12.9 0.00 0.00 0.00 95 1010.7
20260509081516 20 137 3.2 9.7 0.00 0.00 0.00 95 1011.4
20260509080516 20 138 3.2 12.9 0.00 0.00 0.00 94 1011.8
20260509075515 20 152 1.6 4.8 0.00 0.00 0.00 94 1012.8
20260509074515 21 280 0.0 6.4 0.00 0.00 0.00 94 1013.3
20260509073516 20 298 12.9 24.1 0.00 0.00 0.00 95 1013.9
20260509072518 20 302 9.7 16.1 0.00 0.00 0.00 96 1013.9
20260509071518 20 289 4.8 8.0 0.00 0.00 0.00 96 1013.4
20260509070538 20 299 4.8 11.3 0.00 0.00 0.00 96 1013.3
20260509065538 20 317 1.6 8.0 0.00 0.00 0.00 96 1013.4
20260509064518 19 251 1.6 4.8 0.00 0.00 0.00 97 1013.0
20260509063518 19 209 0.0 4.8 0.00 0.00 0.00 97 1012.8
20260509062519 19 155 0.0 1.6 0.00 0.00 0.00 96 1012.5
20260509061538 19 155 0.0 1.6 0.00 0.00 0.00 96 1012.3
20260509060518 19 0.0 0.0 0.00 0.00 0.00 95 1011.9
20260509055518 20 0.0 0.0 0.00 0.00 0.00 95 1012.0
20260509054518 20 0.0 1.6 0.00 0.00 0.00 95 1011.9
20260509053558 20 119 0.0 3.2 0.00 0.00 0.00 95 1011.9
20260509052518 20 0.0 1.6 0.00 0.00 0.00 95 1012.1
20260509051518 20 119 0.0 4.8 0.00 0.00 0.00 95 1012.1
20260509050518 20 91 1.6 4.8 0.00 0.00 0.00 95 1012.4
20260509045518 20 101 3.2 4.8 0.00 0.00 0.00 94 1012.0
20260509044537 20 116 0.0 3.2 0.00 0.00 0.00 94 1011.9
20260509043518 20 124 1.6 3.2 0.00 0.00 0.00 93 1011.7
20260509042558 20 124 1.6 3.2 0.00 0.00 0.00 93 1011.7
20260509041518 20 126 0.0 3.2 0.00 0.00 0.00 93 1011.8
20260509040518 21 138 0.0 3.2 0.00 0.00 0.00 92 1011.7
20260509035518 21 142 1.6 8.0 0.00 0.00 0.00 92 1011.6
20260509034539 21 152 0.0 3.2 0.00 0.00 0.00 91 1011.5
20260509033517 21 146 0.0 3.2 0.00 0.00 0.00 91 1011.5
20260509032518 21 142 1.6 4.8 0.00 0.00 0.00 90 1011.6
20260509031538 21 134 0.0 3.2 0.00 0.00 0.00 90 1011.5
20260509030538 22 150 0.0 1.6 0.00 0.00 0.00 90 1011.6
20260509025517 22 152 0.0 4.8 0.00 0.00 0.00 89 1011.2
20260509024518 22 140 1.6 8.0 0.00 0.00 0.00 89 1010.9
20260509023518 22 128 1.6 6.4 0.00 0.00 0.00 88 1010.9
20260509022518 22 141 0.0 8.0 0.00 0.00 0.00 88 1010.9
20260509021518 22 144 1.6 8.0 0.00 0.00 0.00 87 1011.0
20260509020517 22 148 1.6 4.8 0.00 0.00 0.00 87 1010.8
20260509015518 22 145 1.6 4.8 0.00 0.00 0.00 87 1010.7
20260509014518 22 147 1.6 6.4 0.00 0.00 0.00 87 1010.7
20260509013538 22 148 1.6 8.0 0.00 0.00 0.00 86 1010.6
20260509012518 22 133 0.0 4.8 0.00 0.00 0.00 86 1010.4
20260509011516 23 122 1.6 8.0 0.00 0.00 0.00 86 1010.2
20260509010518 23 137 1.6 8.0 0.00 0.00 0.00 85 1010.0
20260509005517 23 133 1.6 9.7 0.00 0.00 0.00 84 1009.9
20260509004517 23 129 0.0 3.2 0.00 0.00 0.00 83 1009.8
20260509003517 24 130 1.6 6.4 0.00 0.00 0.00 81 1009.9
20260509002518 24 120 0.0 1.6 0.00 0.00 0.00 81 1010.0
20260509001518 25 150 1.6 8.0 0.00 0.00 0.00 80 1010.1
20260509000518 25 124 0.0 1.6 0.00 0.00 0.00 78 1010.1
20260508235516 26 146 1.6 8.0 0.00 0.00 0.00 76 1010.0
20260508234517 26 136 1.6 9.7 0.00 0.00 0.00 75 1009.9
20260508233517 26 146 3.2 11.3 0.00 0.00 0.00 76 1009.7
20260508232517 26 151 3.2 16.1 0.00 0.00 0.00 77 1009.5
20260508231517 26 134 4.8 17.7 0.00 0.00 0.00 77 1009.7
20260508230517 26 139 8.0 16.1 0.00 0.00 0.00 74 1009.9
20260508225517 26 145 3.2 12.9 0.00 0.00 0.00 74 1009.9
20260508224538 26 141 3.2 12.9 0.00 0.00 0.00 75 1009.8
20260508223518 26 141 4.8 16.1 0.00 0.00 0.00 74 1009.9
20260508222517 26 134 1.6 12.9 0.00 0.00 0.00 75 1010.3
20260508221517 26 136 4.8 11.3 0.00 0.00 0.00 75 1010.3
20260508220518 26 124 1.6 9.7 0.00 0.00 0.00 75 1010.5
20260508215517 26 124 1.6 9.7 0.00 0.00 0.00 75 1010.4
20260508214518 26 159 0.0 6.4 0.00 0.00 0.00 75 1010.6
20260508213517 25 237 0.0 4.8 0.00 0.00 0.00 77 1010.8
20260508212517 24 130 4.8 11.3 0.00 0.00 0.00 78 1010.9
20260508211518 23 135 1.6 14.5 0.00 0.00 0.00 81 1011.1
20260508210517 22 127 6.4 16.1 0.00 0.00 0.00 82 1010.9
20260508205518 22 117 11.3 24.1 0.00 0.00 0.00 81 1010.8
20260508204517 22 127 9.7 22.5 0.00 0.00 0.00 81 1010.9
20260508203517 21 124 9.7 19.3 0.00 0.00 0.00 81 1011.1
20260508202517 21 112 12.9 22.5 0.00 0.00 0.00 81 1011.6
20260508201518 21 109 9.7 19.3 0.00 0.00 0.00 81 1012.0
20260508200517 21 107 4.8 11.3 0.00 0.00 0.00 79 1012.4
20260508195517 21 133 3.2 8.0 0.00 0.00 0.00 80 1012.7
20260508194517 21 135 1.6 8.0 0.00 0.00 0.00 79 1013.0
20260508193517 21 143 1.6 8.0 0.00 0.00 0.00 80 1013.0
20260508192517 21 135 3.2 8.0 0.00 0.00 0.00 80 1013.0
20260508191558 21 144 4.8 12.9 0.00 0.00 0.00 80 1012.8
20260508190517 20 115 3.2 11.3 0.00 0.00 0.00 81 1012.8